This demonstration page uses our WeatherBlox Daily Observations layout. Learn more.

Left ArrowRight Arrow

40.92945, -100.16068

Hourly Observations for October 2, 2021

Temp ( °F °C ) Dew Point ( °F °C ) Humidity (%) Winds ( mph kmh ) Pressure ( in mb ) Visibility ( mi km ) Precip ( " mm )
12:15 am 00:15 Clear 51 10.8 51 10.5 98 98 N N/A 30.11 1020 7 11 N/A
12:35 am 00:35 Clear 52 11.1 51 10.7 97 97 W 3 6 30.11 1020 10 16 N/A
12:55 am 00:55 Clear 52 11 51 10.6 97 97 WNW 5 7 30.11 1020 7 11 N/A
1:15 am 01:15 Clear 52 10.9 51 10.5 97 97 WNW 3 6 30.11 1020 7 11 N/A
1:35 am 01:35 Clear 51 10.7 51 10.4 98 98 N N/A 30.11 1020 7 11 N/A
1:55 am 01:55 Clear 51 10.8 51 10.5 98 98 W 3 6 30.11 1020 7 11 N/A
2:15 am 02:15 Clear with Mist and Fog 52 10.9 51 10.5 97 97 NW 5 7 30.11 1020 5 8 N/A
2:35 am 02:35 Clear with Mist and Fog 52 11.1 51 10.8 98 98 NW 6 9 30.11 1020 5 8 N/A
2:55 am 02:55 Clear with Mist and Fog 53 11.5 52 11.1 97 97 WNW 5 7 30.11 1020 5 8 N/A
3:15 am 03:15 Clear with Mist and Fog 52 11.3 52 11 98 98 N N/A 30.11 1020 5 8 N/A
3:35 am 03:35 Clear with Mist and Fog 52 10.9 51 10.6 98 98 SW 5 7 30.11 1020 5 8 N/A
3:55 am 03:55 Clear with Mist and Fog 52 11 51 10.7 98 98 WNW 6 9 30.10 1019 5 8 N/A
4:15 am 04:15 Clear with Mist and Fog 52 11 51 10.7 98 98 WNW 5 7 30.11 1020 5 8 N/A
4:35 am 04:35 Clear with Mist and Fog 52 11 51 10.6 97 97 WNW 7 11 30.10 1019 5 8 N/A
4:55 am 04:55 Clear with Mist and Fog 52 11 51 10.6 97 97 WNW 6 9 30.10 1019 5 8 N/A
5:15 am 05:15 Clear with Mist and Fog 52 11 51 10.6 97 97 WNW 7 11 30.10 1019 5 8 N/A
5:35 am 05:35 Clear 52 11 51 10.6 97 97 WNW 6 9 30.10 1019 7 11 N/A
5:55 am 05:55 Clear 52 11 51 10.7 98 98 NW 6 9 30.10 1019 7 11 N/A
6:15 am 06:15 Clear 52 11 51 10.7 98 98 WNW 5 7 30.10 1019 10 16 N/A
6:35 am 06:35 Clear 52 11 51 10.7 98 98 W 3 6 30.11 1020 7 11 N/A
6:55 am 06:55 Clear 52 11.1 51 10.8 98 98 W 5 7 30.11 1020 7 11 N/A
7:15 am 07:15 Clear 52 11 51 10.6 97 97 W 3 6 30.11 1020 7 11 N/A
7:35 am 07:35 Clear with Mist and Fog 51 10.7 51 10.4 98 98 W 5 7 30.11 1020 5 8 N/A
7:55 am 07:55 Sunny with Mist and Fog 52 11 51 10.6 97 97 W 5 7 30.11 1020 5 8 N/A
8:15 am 08:15 Sunny with Mist and Fog 52 11.2 52 11 99 99 W 5 7 30.11 1020 5 8 N/A
8:35 am 08:35 Sunny 53 11.7 53 11.4 98 98 W 6 9 30.12 1020 7 11 N/A
8:55 am 08:55 Sunny 54 12.2 53 11.8 97 97 WNW 7 11 30.11 1020 10 16 N/A
9:15 am 09:15 Sunny 55 12.8 54 12.1 96 96 WNW 5 7 30.11 1019 10 16 N/A
9:35 am 09:35 Partly Cloudy 56 13.6 55 12.9 96 96 W 3 6 30.10 1019 10 16 N/A
9:55 am 09:55 Partly Cloudy 60 15.5 57 13.9 90 90 NW 8 13 30.08 1019 10 16 N/A
10:15 am 10:15 Partly Cloudy 60 15.6 57 13.7 89 89 NW 6 9 30.08 1019 10 16 N/A
10:35 am 10:35 Partly Cloudy 64 17.7 57 13.8 78 78 NW 10 17 30.06 1018 10 16 N/A
10:55 am 10:55 Partly Cloudy 64 17.8 55 13 74 74 NNW 10 17 30.06 1018 10 16 N/A
11:15 am 11:15 Sunny 65 18.3 55 12.8 70 70 NW 10 17 30.06 1018 10 16 N/A
11:35 am 11:35 Sunny 65 18.5 55 12.9 70 70 NNW 12 19 30.05 1018 10 16 N/A
11:55 am 11:55 Partly Cloudy 66 18.7 55 12.9 69 69 N 9 15 30.05 1018 10 16 N/A
12:15 pm 12:15 Partly Cloudy 66 18.7 55 12.8 69 69 N 7 11 30.05 1018 10 16 N/A
12:35 pm 12:35 Partly Cloudy 67 19.5 56 13.1 67 67 N 9 15 30.04 1017 10 16 N/A
12:55 pm 12:55 Partly Cloudy 68 20 55 12.9 64 64 N 9 15 30.03 1017 10 16 N/A
1:15 pm 13:15 Partly Cloudy 68 19.9 56 13.4 66 66 N 6 9 30.03 1017 10 16 N/A
1:35 pm 13:35 Sunny 66 19.1 56 13.4 70 70 NNE 12 19 30.04 1017 10 16 N/A
1:55 pm 13:55 Sunny 66 19.1 56 13.6 71 71 NNE 9 15 30.03 1017 10 16 N/A
2:15 pm 14:15 Sunny 67 19.6 54 12.4 63 63 NNE 12 19 30.03 1017 10 16 N/A
2:35 pm 14:35 Sunny 66 19.1 53 11.4 61 61 NE 9 15 30.03 1017 10 16 N/A
2:55 pm 14:55 Sunny 67 19.4 52 11.3 60 60 NNE 7 11 30.03 1017 10 16 N/A
3:15 pm 15:15 Sunny 68 20.1 50 10.1 53 53 N 7 11 30.01 1016 10 16 N/A
3:35 pm 15:35 Sunny 71 21.5 51 10.4 49 49 NNE 10 17 29.99 1016 10 16 N/A
3:55 pm 15:55 Sunny 69 20.5 50 10 51 51 N 6 9 30.00 1016 10 16 N/A
4:15 pm 16:15 Sunny 71 21.9 49 9.7 46 46 N 8 13 29.98 1015 7 11 N/A
4:35 pm 16:35 Sunny 71 21.8 49 9.3 45 45 NE 12 19 29.98 1015 10 16 N/A
4:55 pm 16:55 Sunny 72 22.2 47 8.5 42 42 N 9 15 29.97 1015 10 16 N/A
5:15 pm 17:15 Sunny 72 22.1 47 8.5 42 42 NNE 7 11 29.96 1015 10 16 N/A
5:35 pm 17:35 Sunny 71 21.4 47 8.3 43 43 N 10 17 29.97 1015 10 16 N/A
5:55 pm 17:55 Sunny 71 21.7 47 8.6 43 43 N 9 15 29.97 1015 10 16 N/A
6:15 pm 18:15 Sunny 70 21.2 46 7.9 42 42 NNE 8 13 29.97 1015 10 16 N/A
6:35 pm 18:35 Sunny 69 20.5 47 8.4 46 46 NNE 5 7 29.98 1015 10 16 N/A
6:55 pm 18:55 Sunny 66 19.1 48 9.1 52 52 N 6 9 29.99 1016 10 16 N/A
7:15 pm 19:15 Sunny 64 18 48 9.1 56 56 N 5 7 29.99 1016 10 16 N/A
7:35 pm 19:35 Hazy 62 16.6 49 9.3 62 62 NNE 3 6 30.01 1016 2 3 N/A
7:55 pm 19:55 Hazy 58 14.4 51 10.5 78 78 N N/A 30.03 1017 3 5 N/A
8:15 pm 20:15 Clear 58 14.7 51 10.6 77 77 N N/A 30.04 1017 10 16 N/A
8:35 pm 20:35 Clear 58 14.4 51 10.3 77 77 N N/A 30.04 1017 10 16 N/A
8:55 pm 20:55 Clear 56 13.5 50 10 80 80 N N/A 30.05 1018 10 16 N/A
9:15 pm 21:15 Clear 55 12.5 51 10.4 87 87 N N/A 30.06 1018 10 16 N/A
9:35 pm 21:35 Clear 55 12.7 50 10.2 85 85 N N/A 30.07 1018 10 16 N/A
9:55 pm 21:55 Clear 53 11.6 50 9.9 89 89 W 3 6 30.09 1019 10 16 N/A
10:15 pm 22:15 Clear 52 11.2 50 9.8 91 91 W 3 6 30.09 1019 10 16 N/A
10:35 pm 22:35 Clear 51 10.5 49 9.2 92 92 WNW 6 9 30.11 1020 10 16 N/A
10:55 pm 22:55 Clear 50 10.2 48 9 92 92 NW 6 9 30.11 1020 10 16 N/A
11:15 pm 23:15 Clear 50 10 48 8.8 92 92 NW 5 7 30.11 1020 10 16 N/A
11:35 pm 23:35 Clear 50 10 48 8.8 92 92 WNW 3 6 30.11 1020 10 16 N/A
11:55 pm 23:55 Clear 50 10.1 48 9 93 93 W 5 7 30.11 1020 10 16 N/A

Powered by AerisWeather